Weather History for Oslo Airport, Norway

Change the Weather History Date:

Monday, May 27, 2013

  Actual Average Record
Temperature  
Mean Temperature 56 °F -  
Max Temperature 62 °F 62 °F 77 °F (2012)
Min Temperature 51 °F 46 °F 33 °F (1998)
Degree Days  
Heating Degree Days 8    
Growing Degree Days 6 (Base 50)    
Moisture  
Dew Point 47 °F    
Average Humidity 72    
Maximum Humidity 94    
Minimum Humidity 42    
Precipitation  
Precipitation 0.00 in 0.09 in - ()
Sea Level Pressure  
Sea Level Pressure 29.85 in    
Wind  
Wind Speed 6 mph ()    
Max Wind Speed 13 mph    
Max Gust Speed 17 mph    
Visibility 6.9 miles    
Events Rain    
Averages and records for this station are not official NWS values.
T = Trace of Precipitation, MM = Missing Value Source: Averaged Metar Reports

Daily Weather History Graph

Daily Weather History Graph

Search for Another Location

Airport:

Trip Planner

Search our weather history database for the weather conditions in past years. The results will help you decide how hot, cold, wet, or windy it might be!

Date:

Astronomy

May. 27, 2013 Rise Set
Actual Time 4:11 AM CEST 10:16 PM CEST
Civil Twilight 2:52 AM CEST 11:35 PM CEST
Nautical Twilight Sun does not rise Sun does not rise
Astronomical Twilight Sun does not rise Sun does not rise
Moon No Moon Rise 6:40 AM CEST
Length of Visible Light 20h 43m
Length of Day
18h 04m
Waning Gibbous, 93% of the Moon is Illuminated
May 27
Waning Gibbous
May 31
Last Quarter
Jun 8
New
Jun 16
First Quarter
Jun 23
Full

Hourly Weather History & Observations

Time (CEST) Temp. Dew Point Humidity Pressure Visibility Wind Dir Wind Speed Gust Speed Precip Events Conditions
12:20 AM 60.8 °F 37.4 °F 42% 29.80 in 6.2 mi Variable 2.3 mph - N/A Rain Light Rain Showers
12:50 AM 60.8 °F 39.2 °F 45% 29.80 in 6.2 mi NE 4.6 mph - N/A Rain Light Rain Showers
1:20 AM 59.0 °F 41.0 °F 51% 29.80 in 6.2 mi North 3.5 mph - N/A Rain Light Rain Showers
1:50 AM 57.2 °F 42.8 °F 59% 29.80 in 6.2 mi NNW 3.5 mph - N/A Rain Light Rain
2:00 AM 56 °F 45 °F 57%  in 16 mi North 8.9 mph - - Rain Light Rain
2:20 AM 57.2 °F 42.8 °F 59% 29.80 in 6.2 mi North 9.2 mph - N/A   Mostly Cloudy
2:50 AM 55.4 °F 44.6 °F 67% 29.80 in 6.2 mi NNE 10.4 mph - N/A Rain Light Rain
3:20 AM 53.6 °F 48.2 °F 82% 29.80 in 5.0 mi NE 10.4 mph - N/A Rain Rain
3:50 AM 53.6 °F 50.0 °F 88% 29.80 in 5.0 mi NNE 6.9 mph - N/A Rain Rain
4:20 AM 51.8 °F 50.0 °F 94% 29.80 in 6.2 mi NNE 9.2 mph - N/A Rain Light Rain
4:50 AM 53.6 °F 50.0 °F 88% 29.80 in 6.2 mi NNE 8.1 mph - N/A Rain Light Rain
5:20 AM 53.6 °F 50.0 °F 88% 29.80 in 6.2 mi NNE 6.9 mph - N/A Rain Light Rain
5:50 AM 51.8 °F 50.0 °F 94% 29.80 in 6.2 mi NNE 8.1 mph - N/A Rain Light Rain
6:20 AM 51.8 °F 50.0 °F 94% 29.80 in 6.2 mi NE 6.9 mph - N/A   Overcast
6:50 AM 51.8 °F 50.0 °F 94% 29.80 in 6.2 mi NNE 6.9 mph - N/A Rain Light Rain
7:20 AM 51.8 °F 50.0 °F 94% 29.80 in 6.2 mi NNE 6.9 mph - N/A   Mostly Cloudy
7:50 AM 51.8 °F 50.0 °F 94% 29.80 in 6.2 mi NNE 5.8 mph - N/A   Mostly Cloudy
8:00 AM 52 °F 50 °F 92%  in 19 mi ENE 4.5 mph - - Rain Light Rain Showers
8:20 AM 51.8 °F 50.0 °F 94% 29.80 in 6.2 mi NE 6.9 mph - N/A Rain Light Rain
8:50 AM 53.6 °F 50.0 °F 88% 29.80 in 6.2 mi ENE 6.9 mph - N/A   Mostly Cloudy
9:20 AM 53.6 °F 50.0 °F 88% 29.83 in 6.2 mi ENE 6.9 mph - N/A   Mostly Cloudy
9:50 AM 53.6 °F 51.8 °F 94% 29.83 in 3.7 mi East 5.8 mph - N/A   Heavy Drizzle
10:20 AM 53.6 °F 51.8 °F 94% 29.83 in 6.2 mi ESE 4.6 mph 17.3 mph N/A Rain Light Rain
10:50 AM 53.6 °F 51.8 °F 94% 29.83 in 6.2 mi ESE 4.6 mph - N/A   Mostly Cloudy
11:20 AM 53.6 °F 50.0 °F 88% 29.83 in 6.2 mi ESE 6.9 mph - N/A   Mostly Cloudy
11:50 AM 53.6 °F 50.0 °F 88% 29.86 in 6.2 mi ESE 9.2 mph - N/A   Mostly Cloudy
12:20 PM 57.2 °F 51.8 °F 82% 29.86 in 6.2 mi ESE 6.9 mph - N/A   Mostly Cloudy
12:50 PM 57.2 °F 51.8 °F 82% 29.86 in 6.2 mi ESE 8.1 mph - N/A   Mostly Cloudy
1:20 PM 57.2 °F 50.0 °F 77% 29.86 in 6.2 mi ESE 9.2 mph - N/A   Mostly Cloudy
1:50 PM 59.0 °F 48.2 °F 67% 29.86 in 6.2 mi ESE 8.1 mph - N/A   Mostly Cloudy
2:00 PM 60 °F 47 °F 52%  in 19 mi SE 11.2 mph - -   Partly Cloudy
2:20 PM 60.8 °F 48.2 °F 63% 29.86 in 6.2 mi ESE 12.7 mph - N/A   Scattered Clouds
2:50 PM 60.8 °F 46.4 °F 59% 29.86 in 6.2 mi ESE 10.4 mph - N/A   Mostly Cloudy
3:20 PM 60.8 °F 46.4 °F 59% 29.86 in 6.2 mi ESE 11.5 mph - N/A   Mostly Cloudy
3:50 PM 62.6 °F 44.6 °F 52% 29.86 in 6.2 mi SE 12.7 mph - N/A   Mostly Cloudy
4:20 PM 62.6 °F 46.4 °F 55% 29.89 in 6.2 mi SE 10.4 mph - N/A   Mostly Cloudy
4:50 PM 60.8 °F 50.0 °F 68% 29.89 in 6.2 mi South 10.4 mph - N/A   Mostly Cloudy
5:20 PM 59.0 °F 48.2 °F 67% 29.89 in 6.2 mi South 9.2 mph - N/A   Mostly Cloudy
5:50 PM 60.8 °F 48.2 °F 63% 29.89 in 6.2 mi South 8.1 mph - N/A   Mostly Cloudy
6:20 PM 62.6 °F 48.2 °F 59% 29.89 in 6.2 mi SSE 8.1 mph - N/A   Mostly Cloudy
6:50 PM 60.8 °F 46.4 °F 59% 29.89 in 6.2 mi SSE 8.1 mph - N/A   Mostly Cloudy
7:20 PM 60.8 °F 48.2 °F 63% 29.89 in 6.2 mi SSE 4.6 mph - N/A   Scattered Clouds
7:50 PM 60.8 °F 48.2 °F 63% 29.92 in 6.2 mi South 4.6 mph - N/A   Scattered Clouds
8:00 PM 61 °F 48 °F 52%  in 37 mi SSW 4.5 mph - -   Partly Cloudy
8:20 PM 59.0 °F 48.2 °F 67% 29.92 in 6.2 mi Variable 2.3 mph - N/A   Mostly Cloudy
8:50 PM 59.0 °F 44.6 °F 59% 29.92 in 6.2 mi SE 5.8 mph - N/A   Mostly Cloudy
9:20 PM 59.0 °F 42.8 °F 55% 29.92 in - ESE 4.6 mph - N/A   Clear
9:50 PM 59.0 °F 42.8 °F 55% 29.92 in - East 3.5 mph - N/A   Clear
10:20 PM 57.2 °F 44.6 °F 63% 29.92 in - ENE 3.5 mph - N/A   Clear
10:50 PM 57.2 °F 44.6 °F 63% 29.95 in - East 5.8 mph - N/A   Clear
11:20 PM 55.4 °F 44.6 °F 67% 29.95 in - NE 4.6 mph - N/A   Clear
11:50 PM 53.6 °F 44.6 °F 72% 29.95 in - NE 4.6 mph - N/A   Clear